Weather History for Port Hope, MI

Change the Weather History Date:

Friday, January 11, 2013

  Actual Average Record
Temperature  
Mean Temperature 42 °F -  
Max Temperature 50 °F 28 °F 50 °F (2013)
Min Temperature 35 °F 18 °F 12 °F (1997)
Degree Days  
Heating Degree Days 22    
Moisture  
Dew Point 39 °F    
Average Humidity 89    
Maximum Humidity 96    
Minimum Humidity 79    
Precipitation  
Precipitation 0.75 in - - ()
Sea Level Pressure  
Sea Level Pressure 29.87 in    
Wind  
Wind Speed 11 mph (South)    
Max Wind Speed 21 mph    
Max Gust Speed 32 mph    
Averages and records for this station are not official NWS values.
T = Trace of Precipitation, MM = Missing Value Source: NWS Daily Summary

Daily Weather History Graph

Daily Weather History Graph

Search for Another Location

Airport:

Trip Planner

Search our weather history database for the weather conditions in past years. The results will help you decide how hot, cold, wet, or windy it might be!

Date:

Astronomy

Jan. 11, 2013 Rise Set
Actual Time 8:04 AM EST 5:14 PM EST
Civil Twilight 7:32 AM EST 5:46 PM EST
Nautical Twilight 6:56 AM EST 6:22 PM EST
Astronomical Twilight 6:21 AM EST 6:57 PM EST
Moon 7:35 AM EST (1/11) 5:33 PM EST (1/11)
Length of Visible Light 10h 14m
Length of Day
9h 10m
Waning Crescent, 0% of the Moon is Illuminated
Jan 11
Waning Crescent
Jan 11
New
Jan 18
First Quarter
Jan 26
Full
Feb 3
Last Quarter

Hourly Weather History & Observations

Time (EST) Temp. Windchill Dew Point Humidity Pressure Visibility Wind Dir Wind Speed Gust Speed Precip Events Conditions
12:51 AM 36.0 °F 28.0 °F 30.0 °F 79% 30.20 in - SE 11.5 mph 20.7 mph N/A   Unknown
1:51 AM 36.0 °F 29.0 °F 32.0 °F 86% 30.16 in - SSE 9.2 mph - 0.02 in   Unknown
2:51 AM 35.1 °F 25.5 °F 32.0 °F 89% 30.12 in - SE 15.0 mph 25.3 mph 0.16 in   Unknown
3:51 AM 36.0 °F 25.0 °F 32.0 °F 86% 30.06 in - SSE 20.7 mph 32.2 mph 0.20 in   Unknown
4:51 AM 36.0 °F 26.0 °F 33.1 °F 89% 30.00 in - SSE 17.3 mph 28.8 mph 0.06 in   Unknown
5:51 AM 37.0 °F 27.4 °F 34.0 °F 89% 29.95 in - SSE 17.3 mph 28.8 mph 0.14 in   Unknown
6:51 AM 37.0 °F 27.7 °F 34.0 °F 89% 29.91 in - SSE 16.1 mph 26.5 mph 0.11 in   Unknown
7:51 AM 37.0 °F 28.9 °F 34.0 °F 89% 29.89 in - SSE 12.7 mph 25.3 mph N/A   Unknown
8:51 AM 37.9 °F 30.9 °F 35.1 °F 89% 29.86 in - SSE 10.4 mph 26.5 mph 0.05 in   Unknown
9:51 AM 37.9 °F 29.6 °F 35.1 °F 89% 29.81 in - SSE 13.8 mph 24.2 mph N/A   Unknown
10:51 AM 39.9 °F 32.5 °F 37.0 °F 89% 29.79 in - SSE 12.7 mph 21.9 mph N/A   Unknown
11:51 AM 39.9 °F 34.5 °F 37.9 °F 93% 29.78 in - SSE 8.1 mph - N/A   Unknown
12:51 PM 41.0 °F 36.4 °F 39.9 °F 96% 29.75 in - South 6.9 mph - N/A   Unknown
1:51 PM 45.0 °F 40.6 °F 43.0 °F 93% 29.72 in - South 8.1 mph - N/A   Unknown
2:51 PM 46.9 °F - 44.1 °F 90% 29.73 in - Variable 6.9 mph - N/A   Unknown
3:51 PM 48.0 °F - 45.0 °F 89% 29.75 in - Variable 4.6 mph - N/A   Unknown
4:51 PM 46.9 °F - 45.0 °F 93% 29.75 in - Variable 6.9 mph - N/A   Unknown
5:51 PM 48.0 °F - 46.0 °F 93% 29.75 in - SSW 9.2 mph - N/A   Unknown
6:51 PM 50.0 °F - 48.0 °F 93% 29.78 in - SW 8.1 mph 21.9 mph 0.01 in   Unknown
7:51 PM 50.0 °F - 46.9 °F 89% 29.79 in - WSW 8.1 mph - N/A   Unknown
8:51 PM 48.9 °F - 46.9 °F 93% 29.80 in - WSW 5.8 mph - N/A   Unknown
9:51 PM 48.0 °F - 45.0 °F 89% 29.81 in - Variable 3.5 mph - N/A   Unknown
10:51 PM 48.9 °F - 44.1 °F 83% 29.80 in - SW 5.8 mph - N/A   Unknown
11:51 PM 48.9 °F - 43.0 °F 80% 29.81 in - SSW 5.8 mph - N/A   Unknown